Regional Weather Roundup
Issued by NWS

Home | Current Version | Previous Version | Graphics & Text | Print | Product List | Glossary On
Versions: 1 2 3 4 5 6 7 8 9 10 11 12 13 14 15 16 17 18 19 20 21 22 23 24 25 26 27 28 29 30 31 32 33 34 35 36 37 38 39 40 41 42 43 44 45 46 47 48 49 50
000
ASUS43 KOAX 021402
RWRNE

WEATHER ROUNDUP FOR NEBRASKA
NATIONAL WEATHER SERVICE OMAHA NE
900 AM CDT WED SEP 02 2015

NOTES: SATELLITE DATA IS BEING USED TO AUGMENT CLOUD COVER ABOVE
       12000 FEET.
       "FAIR" INDICATES FEW OR NO CLOUDS BELOW 12,000 FEET WITH NO
       SIGNIFICANT WEATHER AND/OR OBSTRUCTIONS TO VISIBILITY.

  * THESE STATIONS DO NOT REPORT WEATHER SUCH AS RAIN...SNOW OR FOG.

NEZ001>004-019>022-054>056-021500-
NEBRASKA PANHANDLE

CITY           SKY/WX    TMP DP  RH WIND       PRES   REMARKS
SCOTTSBLUFF    SUNNY     64  49  57 W3        29.99R
ALLIANCE       MOSUNNY   61  49  64 SW3       29.97S
CHADRON        MOSUNNY   69  47  45 SW3       29.92R
KIMBALL        SUNNY     63  45  52 W5        30.05R
SIDNEY         MOSUNNY   69  44  40 MISG      30.03R
$$

NEZ057>060-069>072-079>082-021500-
SOUTHWEST NEBRASKA

CITY           SKY/WX    TMP DP  RH WIND       PRES   REMARKS
NORTH PLATTE   SUNNY     68  62  81 CALM      29.91S
IMPERIAL       SUNNY     67  54  63 SW3       29.97R
LEXINGTON      SUNNY     70  63  77 S5        29.91S
MCCOOK           N/A     67  59  75 SW6       29.92R
$$

NEZ005>010-023>029-035>040-094-021500-
NORTH CENTRAL NEBRASKA

CITY           SKY/WX    TMP DP  RH WIND       PRES   REMARKS
VALENTINE      MOSUNNY   65  57  75 SW6       29.86S
BROKEN BOW     SUNNY     71  64  78 SE5       29.89S
ORD            SUNNY     70  62  76 E5        29.87F
$$

NEZ041-046>049-061>064-073>077-083>087-021500-
SOUTH CENTRAL NEBRASKA

CITY           SKY/WX    TMP DP  RH WIND       PRES   REMARKS
GRAND ISLAND   SUNNY     76  60  57 S9        29.90S
AURORA         SUNNY     73  65  75 S9        29.90S
HASTINGS       SUNNY     73  61  65 S8        29.90F
HEBRON         SUNNY     77  62  60 SW12      29.91F
HOLDREGE       SUNNY     72  58  62 S6        29.91S
KEARNEY *      SUNNY     70  59  68 S8        29.90S
YORK           SUNNY     73  66  78 SW9       29.90S
$$

NEZ011>018-030>034-042>045-021500-
NORTHEAST NEBRASKA

CITY           SKY/WX    TMP DP  RH WIND       PRES   REMARKS
NORFOLK        SUNNY     72  67  84 S8        29.87S
ALBION         SUNNY     71  64  79 CALM      29.89S
BLAIR          SUNNY     74  67  77 S13G20    29.93R
COLUMBUS *     SUNNY     73  63  68 S5        29.89S
FREMONT        SUNNY     76  68  76 SE12G17   29.91R
TEKAMAH        SUNNY     76  70  82 S10       29.90R
$$

NEZ050>053-065>068-078-088>093-021500-
SOUTHEAST NEBRASKA

CITY           SKY/WX    TMP DP  RH WIND       PRES   REMARKS
LINCOLN        SUNNY     77  67  71 S13       29.91S
OMAHA EPPLEY   MOSUNNY   77  68  73 S17       29.92S
BEATRICE       SUNNY     76  67  73 S10       29.93S
FALLS CITY     PTSUNNY   73  69  87 SE12G22   29.97S
NEBRASKA CITY  MOSUNNY   74  65  73 S14       29.96R
PLATTSMOUTH    SUNNY     74  67  78 SE15G24   29.94S
$$

NEZ044-045-051>053-067-021500-
OMAHA AREA

CITY           SKY/WX    TMP DP  RH WIND       PRES   REMARKS
OMAHA EPPLEY   MOSUNNY   77  68  73 S17       29.92S
BLAIR          SUNNY     74  67  77 S13G20    29.93R
FREMONT        SUNNY     76  68  76 SE12G17   29.91R
OFFUTT AFB     SUNNY     76  69  78 SE14      29.92S
PLATTSMOUTH    SUNNY     74  67  78 SE15G24   29.94S
$$



USA.gov is the U.S. government's official web portal to all federal, state and local government web resources and services.